Tracking 30918 objects as of 2-Jul-2025
HD Live streaming from Space Station
objects crossing your sky now

SL-6 R/B(2)

Track SL-6 R/B(2) now!


NORAD ID: 19557
Int'l Code: 1988-092D
Perigee: 5,294.0 km
Apogee: 34,463.7 km
Inclination: 69.3 °
Period: 705.4 minutes
Semi major axis: 26249 km
RCS: 6.4601 m2 (large)
Launch date: October 3, 1988
Source: Commonwealth of Independent States (former USSR) (CIS)
Launch site: PLESETSK MISSILE AND SPACE COMPLEX (PKMTR)

Note: This is a ROCKET BODY
Your satellite tracking list
FLOCK 4X 37
Track 1 satellite(s)




NASA's NSSDC Master Catalog

Two Line Element Set (TLE):
1 19557U 88092D   25182.47453096 -.00000040  00000-0  00000-0 0  9995
2 19557  69.3375 118.4172 5556178  47.2102  58.2350  2.04132840273884
Source of the keplerian elements: AFSPC